This demonstration page uses our WeatherBlox Daily Observations layout. Learn more.

Left ArrowRight Arrow

34.16533, -84.80231

Hourly Observations for February 25, 2015

Temp ( °F °C ) Dew Point ( °F °C ) Humidity (%) Winds ( mph kmh ) Pressure ( in mb ) Visibility ( mi km ) Precip ( " mm )
12:04 am 00:04 Mostly Cloudy with Mist and Fog 28 -2.2 27 -2.8 96 96 Calm 30.03 1017 2 3 0.00 0.00
12:13 am 00:13 Mostly Cloudy with Freezing Fog 28 -2.2 27 -2.8 96 96 Calm 30.06 1018 1 1 0.00 0.00
12:21 am 00:21 Mostly Cloudy with Freezing Fog 28 -2.2 27 -2.8 96 96 Calm 30.03 1017 0 0 0.00 0.00
12:44 am 00:44 Mostly Cloudy with Mist and Fog 28 -2.2 27 -2.8 96 96 Calm 30.03 1017 1 1 0.00 0.00
12:49 am 00:49 Mostly Cloudy with Mist and Fog 28 -2 27 -3 93 93 Calm 30.03 1017 3 4 0.00 0.00
12:53 am 00:53 Mostly Cloudy with Mist and Fog 28 -2.2 26 -3.3 92 92 Calm 29.98 1015 4 6 0.00 0.00
1:00 am 01:00 Partly Cloudy with Mist and Fog 28 -2.2 26 -3.3 92 92 Calm 30.03 1017 4 6 0.00 0.00
1:53 am 01:53 Clear with Mist and Fog 28 -2.2 26 -3.3 92 92 Calm 29.98 1015 6 10 0.00 0.00
2:53 am 02:53 Clear with Mist and Fog 28 -2.2 26 -3.3 92 92 Calm 29.99 1016 6 10 0.00 0.00
3:53 am 03:53 Clear 28 -2.2 26 -3.3 92 92 Calm 29.98 1015 8 13 0.00 0.00
4:53 am 04:53 Clear 27 -2.8 25 -3.9 92 92 Calm 29.96 1015 7 11 0.00 0.00
5:53 am 05:53 Clear 27 -2.8 24 -4.4 89 89 SW 3 6 29.96 1015 10 16 0.00 0.00
6:53 am 06:53 Clear 27 -2.8 24 -4.4 89 89 Calm 29.98 1015 10 16 0.00 0.00
7:53 am 07:53 Sunny 28 -2.2 24 -4.4 85 85 Calm 29.98 1015 9 14 0.00 0.00
8:53 am 08:53 Sunny 30 -1.1 23 -5 75 75 Calm 29.98 1015 10 16 0.00 0.00
9:53 am 09:53 Sunny 31 -0.6 21 -6.1 67 67 N 5 7 29.99 1016 10 16 0.00 0.00
10:53 am 10:53 Sunny 33 0.6 22 -5.6 64 64 Calm 29.99 1016 10 16 0.00 0.00
11:53 am 11:53 Mostly Cloudy 34 1.1 21 -6.1 59 59 NNE 3 6 29.95 1014 10 16 0.00 0.00
12:53 pm 12:53 Cloudy 34 1.1 22 -5.6 61 61 NE 6 9 29.88 1012 10 16 0.00 0.00
1:53 pm 13:53 Cloudy 34 1.1 22 -5.6 61 61 Calm 29.86 1011 10 16 0.00 0.00
2:53 pm 14:53 Cloudy with Light Snow 33 0.6 25 -3.9 72 72 ESE 5 7 29.83 1010 2 3 0.00 0.03
2:57 pm 14:57 Cloudy with Light Snow 32 0 26 -3.3 79 79 SE 5 7 29.88 1012 1 1 0.00 0.03
3:11 pm 15:11 Cloudy with Light Snow 32 0 28 -2.2 85 85 SSW 3 6 29.97 1015 2 2 0.01 0.25
3:23 pm 15:23 Cloudy with Light Snow 31 -0.6 28 -2.2 89 89 Calm 29.97 1015 1 1 0.02 0.51
3:32 pm 15:32 Cloudy with Snow 31 -0.6 28 -2.2 89 89 N 5 7 29.94 1014 0 0 0.04 1.02
3:36 pm 15:36 Mostly Cloudy with Snow 31 -0.6 28 -2.2 89 89 N 6 9 29.91 1013 1 1 0.05 1.27
3:53 pm 15:53 Cloudy with Snow 31 -0.6 29 -1.7 92 92 NNE 6 9 29.84 1011 1 1 0.06 1.52
4:05 pm 16:05 Cloudy with Snow 31 -0.6 29 -1.7 92 92 NNE 5 7 29.88 1012 0 0 0.02 0.51
4:18 pm 16:18 Cloudy with Snow 31 -0.6 29 -1.7 92 92 Calm 29.91 1013 0 0 0.05 1.27
4:27 pm 16:27 Cloudy with Light Snow 31 -0.6 30 -1.1 96 96 Calm 29.91 1013 1 1 0.06 1.52
4:42 pm 16:42 Cloudy with Snow 31 -0.6 29 -1.7 92 92 Calm 29.88 1012 1 1 0.07 1.78
4:53 pm 16:53 Cloudy with Snow 31 -0.6 29 -1.7 92 92 Calm 29.85 1011 0 0 0.10 2.54
5:08 pm 17:08 Mostly Cloudy with Snow 31 -0.6 29 -1.7 92 92 NNE 3 6 29.88 1012 0 0 0.03 0.76
5:29 pm 17:29 Mostly Cloudy with Snow 31 -0.6 29 -1.7 92 92 ENE 3 6 29.85 1011 0 0 0.06 1.52
5:38 pm 17:38 Cloudy with Light Snow 31 -0.6 29 -1.7 92 92 NE 5 7 29.83 1010 1 1 0.07 1.78
5:53 pm 17:53 Cloudy with Light Snow 31 -0.6 29 -1.7 92 92 NNE 6 9 29.76 1008 1 1 0.08 2.03
6:06 pm 18:06 Cloudy with Light Snow 32 0 30 -1.1 92 92 NNE 5 7 29.83 1010 1 2 0.00 0.03
6:22 pm 18:22 Cloudy with Light Wintry Mix 32 0 30 -1.1 92 92 N 5 7 29.85 1011 3 4 0.01 0.25
6:29 pm 18:29 Cloudy with Light Wintry Mix 32 0 30 -1.1 92 92 ENE 3 6 29.85 1011 3 5 0.02 0.51
6:37 pm 18:37 Cloudy with Light Snow 32 0 30 -1.1 92 92 NE 5 7 29.80 1009 3 5 0.03 0.76
6:44 pm 18:44 Cloudy with Light Snow 32 0 30 -1.1 92 92 NE 6 9 29.83 1010 3 4 0.05 1.27
6:53 pm 18:53 Cloudy with Light Wintry Mix 32 0 30 -1.1 92 92 NNE 7 11 29.75 1008 3 5 0.06 1.52
7:53 pm 19:53 Cloudy with Light Rain 33 0.6 31 -0.6 92 92 Calm 29.77 1008 4 6 0.07 1.78
8:02 pm 20:02 Cloudy with Light Rain 33 0.6 31 -0.6 92 92 Calm 29.80 1009 5 8 0.00 0.03
8:34 pm 20:34 Cloudy with Light Snow 33 0.6 31 -0.6 92 92 Calm 29.77 1008 3 4 0.05 1.27
8:46 pm 20:46 Cloudy with Light Wintry Mix 33 0.6 31 -0.6 92 92 Calm 29.77 1008 4 6 0.06 1.52
8:53 pm 20:53 Cloudy with Light Wintry Mix 33 0.6 31 -0.6 92 92 Calm 29.74 1007 4 6 0.06 1.52
9:21 pm 21:21 Cloudy with Light Snow 32 0 31 -0.6 96 96 Calm 29.80 1009 2 3 0.03 0.76
9:50 pm 21:50 Cloudy with Light Wintry Mix 32 0 30 -1 93 93 Calm 29.83 1010 2 3 0.06 1.52
9:53 pm 21:53 Cloudy with Light Snow 32 0 31 -0.6 96 96 Calm 29.76 1008 2 3 0.07 1.78
10:09 pm 22:09 Cloudy with Light Snow 32 0 31 -0.6 96 96 Calm 29.83 1010 2 2 0.02 0.51
10:53 pm 22:53 Cloudy with Light Snow 32 0 30 -1.1 92 92 Calm 29.79 1009 1 1 0.08 2.03
11:13 pm 23:13 Cloudy with Light Snow 32 0 30 -1.1 92 92 N 5 7 29.85 1011 1 2 0.01 0.25
11:53 pm 23:53 Cloudy with Light Snow 31 -0.6 29 -1.7 92 92 NNE 7 11 29.77 1008 2 3 0.02 0.51

Powered by AerisWeather